NOAA 16 DEB, 41251

Orbit data source: Space-Track

NOAA 16 DEB, 41251 is space debris in SSO originally from a launch on Thu, 21 Sep 2000 UTC launched from the Air Force Western Test Range (AFWTR). Debris objects in space refer to the collection of defunct objects orbiting the Earth. Examples of debris include non-operational satellites, rocket bodies, and fragments generated from explosions, collisions, or faulty payload assembly.

Loading next visibility...
Identifier
41251, 2000-055FB
Orbit
SSO
Country
Flag of USUS
Related business
Manufacturer
Unknown
Mission
Spacecraft
Bus & Motor
Unknown
Mass
Unknown
Launch date (UTC)
2000-09-21 (25 years ago)
Launch vehicle
Unknown
Launch site
Air Force Western Test Range (AFWTR)
Object type
Payload
Rocket body
Debris
Shape & HBR
Unknown shape, 0.1 m
Radar Cross Section
Small (<0.1 m²)

Expand to show TLE details & history
Last TLE update: 12 hours ago

TLE from 12 hours ago
0 NOAA 16 DEB
1 41251U 00055FB  25286.79679568  .00016984  00000-0  56803-2 0  9995
2 41251  98.9670  50.9736 0044700 140.7210 219.7232 14.36874743506457
Epoch: 2025-10-13T19:07Z
TLE epoch observation values (Epoch: 2025-10-13T19:07:23.146Z)
Latitude
-0.00005°
Longitude
101.53274°
Altitude
796.407 km
Speed
7.443 km/s
True Right ascension
03h 23m 53s
True Declination
0° 00' 00"
Sunlit
Object was in full shadow at epoch
Visualization orbit readout
Latitude
Unknown
Longitude
Unknown
Altitude
Unknown
Speed
Unknown
Apparent Right ascension
Unknown
Apparent Declination
Unknown
Sunlit
N/A
Visualization observer readout
Local Sidereal Time
01:55:19
Azimuth
Unknown
Elevation
Unknown
Doppler factor
Unknown
Orbital elements
Apogee altitude
797.926 km
Perigee altitude
734.057 km
Semi-major axis
7,144.129 km
Eccentricity
0.00447
Inclination
98.967°
RAAN
50.9736°
Arg. of periapsis
140.721°
True anomaly
219.39725°
Mean anomaly
219.7232°
Eccentric anomaly
219.56009°
Mean motion
3.59434 °/min
Orbital period
100.16 mins
BSTAR
0.0056803
Loading maneuver chart data...
Computing Atmospheric mass density...
Loading historical data...
Loading historical data...
Loading historical data...
Loading historical data...
Loading historical data...
Loading historical data...
Loading historical data...

Documentation

Showing up to 5 results
|